METEOR 2-11 DEB, 40703

Orbit data source: Space-Track

METEOR 2-11 DEB, 40703 is space debris in LEO originally from a launch on Thu, 05 Jul 1984 UTC launched from the Plesetsk Missile And Space Complex (PKMTR). Debris objects in space refer to the collection of defunct objects orbiting the Earth. Examples of debris include non-operational satellites, rocket bodies, and fragments generated from explosions, collisions, or faulty payload assembly.

Loading next visibility...
METEOR 2-11 DEB details
Identifier
40703, 1984-072E
Orbit
LEO
Last TLE update2 days ago
Origin
Flag of CISVVKO (CIS)
ManufacturerUnknown
MissionSpacecraft
Bus & MotorUnknown
MassUnknown
Launch date (UTC)
1984-07-05 (40 years ago)
Launch vehicleUnknown
Launch site
Plesetsk Missile And Space Complex (PKMTR)
Object type
Payload
Rocket body
Debris
Shape & HBRUnknown
Radar Cross SectionSmall (<0.1 m²)

Expand to show TLE details & history

TLE from 2 days ago
0 METEOR 2-11 DEB
1 40703U 84072E   24359.49471272  .00005975  00000-0  44710-2 0  9998
2 40703  82.5077  87.9591 0009270 148.3950 211.7775 13.94447278493973
Epoch: 2024-12-24T11:52Z
Definitive object data (Epoch: 2024-12-24T11:52:23.179Z)
Latitude0.00007°
Longitude176.36053°
Altitude921.751 km
Speed7.388 km/s
True Right ascension05h 51m 50s
True Declination0° 00' 00"
Sunlit
Object was in full shadow at TLE epoch
Visualization TLE readout
Latitude61.58348°
Longitude-171.46377°
Altitude922.301 km
Speed7.397 km/s
Apparent Right ascension05h 39m 06s
Apparent Declination15° 53' 60"
Sunlit
Object is in full shadow
Visualization observer readout
Local Sidereal Time16:55:41
Azimuth347.492° N
Elevation-33.275°
Doppler factor1
Orbital elements
Apogee altitude916.983 km
Perigee altitude903.47 km
Semi-major axis7,288.363 km
Eccentricity0.000927
Inclination82.5077°
RAAN87.9591°
Arg. of periapsis148.395°
True anomaly211.72161°
Mean anomaly211.7775°
Eccentric anomaly211.74955°
Mean motion3.48817 °/min
BSTAR0.004471
Orbital period103.21 mins
Loading maneuver chart data...
Loading historical data...
Loading historical data...
Loading historical data...
Loading historical data...
Loading historical data...
Loading historical data...
Loading historical data...

METEOR 2-11 DEB Visibility forecast

Observer location: undefined°, undefined

Span
Click to sort rows by Start time (UTC) header in descending order
Start Az.
Max El. time (UTC)
Max El. Az.
Max El.
End time (UTC)
End Az.
10 mins2024-12-26 17:50:20.302Z353.039° N2024-12-26 17:55:20.302Z22.921° NE44.918°2024-12-26 18:00:20.302Z172.936° S
7 mins2024-12-27 05:27:20.302Z120.385° SE2024-12-27 05:30:20.302Z82.999° E20.038°2024-12-27 05:34:20.302Z38.908° NE
10 mins2024-12-27 07:09:20.302Z210.695° SW2024-12-27 07:14:20.302Z297.961° NW37.089°2024-12-27 07:19:20.302Z356.355° N
5 mins2024-12-27 16:15:20.302Z44.349° NE2024-12-27 16:17:20.302Z66.958° ENE15.007°2024-12-27 16:20:20.302Z99.396° ESE
|